GFSNGP_2pvu_pres_327.txt.gz
Presure
249 247 252 267 302 302 301 303 299 292 248 246 245 245 243 241 236 234 237 240 236 234 241 241 229 242 241 287 239 237 233 239 243 229 227 226 228 229 230 230 231 223 219 226
279 261 251 245 245 255 289 298 297 299 302 297 299 278 240 234 236 234 235 231 225 224 226 232 235 240 259 285 226 226 228 286 286 237 235 234 229 227 229 233 235 233 233 230
349 341 329 273 253 239 238 238 275 286 290 292 289 289 294 292 275 256 239 237 243 247 248 244 245 239 232 230 228 228 242 247 263 238 238 239 285 293 294 298 321 321 314 298
366 355 349 348 335 272 253 243 232 243 266 276 277 276 276 284 291 289 279 273 260 239 228 226 227 229 230 229 229 239 239 239 238 237 236 236 238 239 235 231 229 229 230 231
377 367 349 341 339 332 324 277 262 237 230 240 248 260 263 270 274 278 281 282 283 278 277 276 273 276 281 279 277 273 276 278 262 257 258 261 273 278 282 284 280 275 269 257
406 369 355 348 333 327 324 320 316 270 247 237 234 229 227 229 230 234 248 267 269 267 265 263 260 259 261 266 271 271 271 272 270 265 263 261 263 258 260 259 252 250 250 247
393 403 359 351 345 333 323 315 311 309 308 306 302 272 245 241 239 235 232 232 232 229 227 226 227 227 224 224 225 233 244 250 256 260 262 263 260 255 251 249 248 248 246 247
380 348 347 363 348 337 329 320 308 306 304 303 300 297 298 301 302 299 292 293 294 292 292 295 294 315 337 335 327 324 322 290 289 293 236 232 229 235 235 225 228 239 233 235
341 334 341 332 331 332 330 327 322 317 314 304 298 293 289 288 283 282 286 286 287 294 334 326 316 310 303 302 302 300 299 304 314 318 321 320 320 324 328 335 345 364 366 365
362 371 325 334 363 321 325 327 324 313 311 305 307 303 300 342 295 386 351 330 316 304 298 290 284 282 281 282 296 309 305 303 304 313 332 333 330 324 316 313 311 309 306 305
333 337 338 342 338 328 336 367 369 375 378 376 377 367 355 324 311 301 293 285 280 276 275 277 280 289 299 295 288 285 286 284 281 285 286 288 291 293 320 338 334 330 325 319
321 320 317 340 339 324 314 306 298 292 285 281 280 280 280 277 274 273 273 273 279 277 276 281 278 276 272 270 270 270 269 269 272 269 267 268 269 270 271 275 277 280 284 288
343 327 307 299 290 279 273 271 271 270 269 263 268 271 277 279 264 264 268 273 267 267 272 265 264 263 260 255 262 262 264 263 262 261 260 264 266 265 266 266 268 268 267 269
283 276 271 266 262 262 262 262 264 262 263 263 260 264 269 267 254 255 267 265 246 246 276 246 237 240 235 245 268 273 277 278 278 280 283 288 294 298 300 293 281 285 278 282
261 261 259 255 258 258 259 261 269 266 260 261 261 252 257 252 251 255 260 251 241 243 247 263 254 247 250 260 251 262 266 268 270 270 276 273 278 277 276 282 300 278 277 297
254 248 254 258 258 263 262 259 259 259 255 253 253 251 254 255 243 247 248 245 251 259 255 243 245 259 262 265 263 266 267 288 278 271 266 276 271 264 266 277 301 300 298 297
247 252 252 254 251 248 248 249 250 249 248 248 248 245 249 250 247 253 248 244 240 241 251 258 257 254 244 250 262 271 270 284 278 271 272 268 270 297 297 298 297 291 284 281
251 250 248 249 250 249 240 246 253 253 252 244 242 243 246 246 246 250 247 259 258 240 247 255 257 258 261 261 264 267 275 290 263 265 265 287 278 266 289 288 282 271 258 258
248 251 247 248 240 245 245 249 244 242 242 243 245 246 248 249 258 256 253 255 253 254 255 257 256 258 258 260 262 274 285 254 260 278 292 273 296 288 289 285 276 266 261 272
249 248 247 247 249 244 244 245 244 242 244 243 247 248 247 250 260 257 252 260 265 257 255 255 258 259 261 266 277 286 268 270 276 270 304 302 294 292 294 292 272 263 278 283
256 246 246 247 249 233 242 243 256 244 245 241 245 250 255 256 260 253 259 265 270 275 261 258 261 269 274 282 275 267 272 266 274 301 292 285 291 293 285 255 277 281 298 336
250 249 250 249 252 251 250 250 252 259 254 253 255 259 263 264 257 264 268 265 261 259 262 270 275 281 267 265 272 291 262 289 294 295 294 292 285 268 258 281 282 311 335 365
264 262 261 258 258 257 259 262 264 267 272 276 274 272 272 275 266 261 258 260 269 274 279 262 254 260 281 284 274 296 298 295 292 289 285 273 265 283 281 294 316 341 370 389
287 288 286 285 283 280 279 277 277 275 267 262 258 256 257 261 266 274 277 250 248 254 261 287 290 287 295 294 291 290 285 280 280 279 264 280 282 291 315 331 356 378 389 426
252 252 251 251 252 253 254 257 261 266 269 272 268 269 242 247 253 262 270 294 295 294 294 296 294 289 289 292 294 297 289 283 277 280 285 303 318 332 338 358 385 390 431 445
260 263 267 270 272 275 264 240 243 254 263 272 281 283 283 284 282 281 282 284 285 287 281 285 297 294 289 279 275 276 277 286 294 302 312 325 339 347 368 384 393 425 406 298
272 274 267 260 268 274 274 272 269 266 269 271 280 290 294 295 298 299 298 292 285 281 277 275 275 279 281 285 291 294 301 308 316 326 346 355 365 379 382 399 427 380 304 291

GFSNGP_2pvu_pres_330.txt.gz
Presure
328 300 251 262 297 303 305 292 287 289 285 281 271 263 255 247 248 244 242 242 240 237 238 236 243 245 238 244 249 247 242 240 235 240 241 241 241 240 242 241 234 232 232 235
357 332 307 258 242 277 293 296 309 307 289 282 279 273 267 259 250 243 244 247 246 241 238 237 235 234 235 232 237 237 288 241 238 237 234 229 253 264 272 246 240 238 239 240
369 359 345 310 275 248 237 265 272 301 305 304 299 286 267 261 262 256 250 246 245 242 238 235 237 239 238 239 236 229 229 240 238 231 229 287 263 248 243 242 242 238 239 233
434 385 359 349 321 291 259 242 235 237 246 289 295 296 296 294 293 292 276 270 238 240 240 237 235 234 235 235 235 233 228 228 232 237 239 240 257 264 264 230 232 235 234 237
406 390 378 364 350 340 311 278 257 247 237 234 235 248 288 287 288 290 288 286 287 294 285 242 229 228 228 230 232 231 230 229 231 235 238 236 231 230 231 234 233 232 232 230
395 377 371 361 358 350 345 339 324 282 268 250 232 226 229 239 267 275 275 273 273 276 284 291 293 289 276 264 253 240 234 235 232 229 228 229 230 230 229 230 230 233 237 239
397 398 370 362 352 345 337 340 335 332 329 303 271 253 240 230 236 248 251 255 259 261 265 269 273 277 279 277 277 279 277 273 271 271 271 271 271 274 277 280 278 274 276 276
379 396 385 361 349 343 338 334 330 328 325 323 321 319 303 267 240 227 227 231 232 234 234 224 228 235 236 242 248 258 261 259 254 250 248 245 245 246 251 256 261 263 262 264
374 370 369 375 343 344 343 329 333 321 319 313 309 310 308 309 305 302 299 292 290 269 243 240 249 291 290 290 288 291 292 293 288 313 320 316 317 318 319 313 316 341 243 239
363 328 328 330 330 330 327 330 321 318 313 307 305 305 302 301 296 293 290 289 287 284 283 284 284 287 288 296 318 314 309 303 301 301 301 305 307 315 339 345 343 334 328 317
351 362 368 333 324 319 339 327 320 317 314 311 308 301 296 293 288 287 286 288 308 284 320 312 305 299 294 290 286 286 288 294 295 288 284 281 281 281 285 289 293 296 299 302
333 335 328 323 323 341 349 358 363 367 369 396 407 411 410 383 365 343 317 307 298 291 287 279 277 279 281 283 280 278 276 274 271 271 271 271 270 273 276 273 271 273 273 275
342 340 328 319 311 305 299 295 292 291 289 288 285 285 283 282 282 279 275 275 276 276 277 279 282 274 269 267 264 262 262 259 264 289 294 295 296 298 298 299 297 269 270 270
281 278 273 271 270 271 271 270 270 270 272 264 268 270 275 276 275 273 274 270 264 266 266 262 253 258 269 266 266 252 246 239 256 275 274 278 280 280 280 280 285 285 284 288
264 264 262 261 261 260 261 260 260 269 275 268 260 265 266 262 260 258 257 253 251 252 253 250 245 242 242 253 259 253 258 267 267 269 263 267 283 292 282 278 275 276 279 278
255 256 258 258 260 264 273 271 268 261 262 258 255 250 250 249 257 261 260 245 243 249 252 252 260 259 252 249 252 256 255 252 251 253 263 272 276 289 291 276 278 279 268 287
246 254 253 257 257 250 249 250 254 252 251 251 252 250 249 247 247 249 250 248 244 249 249 247 247 243 250 248 249 255 260 261 265 266 269 277 290 291 285 262 274 299 283 284
250 252 256 251 254 253 251 247 253 252 251 251 250 248 246 244 245 245 244 243 244 244 260 247 241 240 243 264 262 262 261 263 263 266 270 284 292 275 274 283 276 311 310 302
250 252 253 249 250 246 246 243 247 248 246 245 245 244 245 246 248 250 252 252 259 264 261 262 263 267 272 267 259 257 261 262 268 276 287 288 270 280 279 268 298 298 293 291
256 249 249 248 249 248 249 246 243 247 241 241 248 247 245 240 247 244 250 255 257 262 265 256 265 275 276 264 262 264 268 278 283 281 265 274 290 279 279 301 299 301 297 293
255 254 256 250 246 248 248 248 238 235 253 258 248 250 254 251 244 258 262 270 270 265 266 272 268 263 262 265 276 280 280 265 258 268 290 287 293 299 296 295 292 292 288 271
264 262 259 255 250 249 254 253 251 254 256 258 263 267 273 280 281 277 272 269 268 263 260 263 269 280 279 265 253 257 278 300 298 299 301 296 293 293 288 284 288 284 286 297
282 275 271 269 267 266 266 272 277 282 283 282 277 267 260 259 259 260 265 272 278 277 262 257 257 271 288 295 296 295 296 298 295 299 304 303 298 289 282 283 289 300 312 330
290 289 288 286 282 275 264 255 254 255 257 261 270 277 280 246 253 271 277 280 282 283 287 288 289 287 290 295 296 299 301 292 283 280 279 279 287 293 302 308 317 327 357 370
260 260 259 261 263 268 272 274 274 272 267 266 272 272 271 269 266 269 281 286 293 295 294 292 290 288 281 278 275 274 281 285 287 291 294 298 307 314 321 337 365 375 376 380
265 269 272 272 271 271 262 268 276 273 264 261 259 264 268 268 269 271 276 280 284 286 287 286 275 272 276 279 278 278 290 301 304 308 309 315 324 338 365 372 373 381 383 390
274 274 276 278 269 271 275 262 260 259 258 260 264 266 265 267 271 272 277 276 282 289 295 290 290 295 302 304 302 299 303 310 315 321 324 336 360 372 378 390 401 405 388 378

GFSNGP_2pvu_pres_333.txt.gz
Presure
345 341 335 281 262 273 293 287 286 285 280 276 264 261 260 261 256 252 258 258 255 253 250 251 249 245 243 247 250 250 246 243 242 243 243 246 248 250 248 260 262 257 259 256
368 353 338 330 316 268 249 283 285 282 279 275 273 272 265 260 258 259 255 258 255 251 247 244 250 251 252 244 241 242 246 246 240 239 241 242 246 253 249 244 242 284 278 252
368 370 365 358 338 320 280 241 263 284 285 281 274 271 268 266 263 258 256 254 256 253 246 248 247 242 243 242 238 237 235 238 246 240 235 231 237 245 243 242 246 247 242 241
420 384 365 355 351 347 328 294 241 252 281 287 292 291 291 286 281 275 267 258 256 256 252 247 245 240 239 238 236 235 236 236 231 237 239 236 238 240 240 239 239 238 237 237
398 413 403 363 355 349 340 333 299 242 240 278 285 288 290 297 299 290 277 272 266 261 259 255 251 246 245 246 246 240 238 237 237 238 238 237 235 229 228 228 229 231 231 229
396 390 386 379 362 354 348 342 332 291 243 236 260 272 268 288 293 291 291 293 292 291 286 255 249 241 238 238 240 244 245 240 235 234 233 235 236 237 237 234 231 230 230 235
395 394 374 371 366 358 346 341 338 335 324 249 239 233 228 228 237 247 265 282 286 285 285 287 285 282 281 281 284 288 289 258 235 235 236 235 234 236 237 238 240 243 249 240
383 392 371 370 359 354 352 350 342 339 335 338 290 248 243 238 230 226 228 231 231 245 264 269 270 269 267 267 268 269 271 274 276 280 280 279 278 280 283 282 278 267 262 260
372 378 374 356 352 349 342 338 341 336 338 337 334 333 325 316 267 251 233 229 226 223 227 242 245 245 246 249 250 252 253 253 253 254 257 262 264 265 266 267 267 265 265 262
348 340 351 378 331 338 334 327 326 324 319 321 322 320 318 318 315 314 313 312 307 270 258 227 224 226 228 229 231 231 231 229 229 228 227 230 241 241 242 242 299 321 319 318
364 327 324 326 332 334 328 331 323 323 323 316 310 309 306 303 300 299 297 297 295 295 297 296 294 292 289 287 286 286 300 301 315 311 307 305 303 304 302 299 296 294 293 292
328 333 338 325 344 332 322 318 318 315 313 313 315 312 308 305 301 296 293 289 285 283 282 282 280 300 304 309 300 296 293 291 293 292 291 289 286 283 283 283 281 280 278 275
318 323 326 325 323 322 323 324 326 329 337 353 396 399 398 397 290 287 284 281 278 312 308 301 294 290 286 280 285 286 283 280 277 275 274 273 272 271 272 283 289 293 295 295
282 282 282 283 283 285 286 286 284 284 283 282 283 283 284 286 288 290 289 286 283 279 276 277 279 279 276 277 272 268 268 268 269 272 276 275 262 251 261 273 280 279 288 295
265 265 263 262 262 262 263 263 262 264 262 266 271 274 274 273 273 274 275 276 275 271 269 269 267 266 265 260 257 254 251 259 261 251 241 261 252 253 257 267 266 267 275 286
260 261 260 262 269 270 264 273 278 269 255 258 262 262 261 259 255 251 251 251 251 251 252 252 251 251 249 245 244 257 260 255 252 255 259 260 260 260 262 266 269 274 283 300
260 257 258 258 259 259 259 258 257 257 256 250 251 250 248 248 250 252 249 248 248 246 248 251 252 253 253 254 253 253 252 253 253 250 258 272 269 266 269 271 274 281 294 298
257 258 257 255 253 255 255 256 254 253 251 252 251 251 250 249 248 247 247 247 246 244 243 244 250 252 251 253 258 255 250 254 258 271 270 270 266 266 265 272 285 292 280 274
255 248 250 256 250 251 252 246 246 244 245 248 247 246 244 245 245 245 248 249 252 252 251 251 252 255 256 265 269 262 259 269 278 274 266 264 266 275 286 286 272 264 281 296
256 257 254 251 248 247 247 250 251 249 246 240 243 242 240 244 252 252 249 249 249 240 248 258 263 269 271 269 262 269 274 267 264 264 271 285 284 260 253 277 300 300 302 302
263 261 259 258 256 256 256 251 246 247 250 253 256 257 256 254 254 261 266 273 282 281 283 278 270 267 265 263 260 264 271 283 280 274 250 253 300 302 299 298 303 302 306 307
290 278 270 266 263 261 261 261 260 260 261 266 270 275 281 283 280 272 263 255 257 260 270 275 280 283 283 280 281 280 286 288 289 289 290 294 298 299 292 288 287 282 284 290
298 294 291 288 284 282 282 284 287 290 286 266 261 254 257 264 272 279 276 260 266 272 273 271 274 282 286 298 303 300 300 299 296 287 281 279 280 281 281 286 292 301 310 315
262 263 264 258 256 257 256 257 258 261 268 274 279 277 263 269 271 268 265 261 265 268 269 269 271 274 283 287 288 289 292 285 280 278 282 288 291 283 306 307 309 316 321 328
269 271 268 267 268 269 272 273 270 270 263 266 274 277 264 258 259 263 262 264 264 265 268 269 278 283 283 283 289 293 293 295 299 302 301 302 306 309 314 319 322 325 335 351
279 280 264 266 272 273 275 278 275 265 273 273 259 261 260 257 261 260 259 258 257 264 267 272 279 291 295 293 296 300 298 295 298 306 311 312 311 312 317 328 342 351 370 392
283 277 277 277 277 278 281 271 264 263 262 261 261 259 260 258 256 262 265 267 272 270 286 286 288 298 295 295 301 300 297 303 308 313 315 314 317 331 344 355 376 396 421 432

GFSNGP_2pvu_pres_339.txt.gz
Presure
327 326 330 327 315 310 307 279 262 290 292 283 275 271 269 269 268 269 271 272 273 271 271 268 264 261 257 252 247 242 239 235 232 233 237 239 239 238 235 231 229 230 239 247
328 323 325 333 335 332 305 302 297 260 287 287 278 273 268 266 266 268 267 266 267 266 264 263 264 266 269 268 266 264 263 261 260 260 258 256 258 259 261 262 263 265 266 267
338 336 334 328 341 331 318 320 296 283 266 280 278 271 266 265 263 266 264 263 263 261 258 256 252 253 255 255 256 260 261 262 261 260 260 261 262 262 260 260 260 257 255 254
408 373 335 321 335 330 337 333 322 296 284 251 278 273 268 263 261 258 256 257 257 259 260 260 259 258 258 257 255 257 256 254 257 253 251 251 252 255 259 259 255 251 249 247
419 445 391 371 321 317 327 340 350 320 293 272 252 275 273 272 268 262 262 259 257 257 254 255 257 257 255 251 255 256 254 253 253 252 250 250 252 253 254 251 250 247 246 248
396 404 413 383 375 340 340 340 351 329 308 290 274 251 275 276 273 271 269 264 263 262 260 260 260 261 259 258 258 258 257 258 257 252 251 249 248 250 252 252 250 249 250 248
390 399 410 400 372 359 341 350 344 350 334 321 288 280 255 267 276 274 272 270 266 264 261 256 257 257 258 256 254 255 255 257 256 252 251 253 251 249 245 246 245 243 242 247
395 382 389 400 379 358 350 345 335 327 324 322 322 294 273 262 258 272 275 273 272 268 266 268 266 264 261 260 259 260 258 260 257 253 252 252 254 253 249 243 243 241 241 242
374 366 386 375 387 373 353 351 353 336 333 331 322 320 315 271 260 238 255 264 271 273 271 269 267 268 268 267 263 261 259 258 263 266 265 258 255 256 257 257 252 246 243 242
343 337 350 360 364 383 368 353 345 348 336 337 338 334 329 313 296 258 239 239 250 261 267 275 278 284 288 290 287 285 282 281 278 278 277 278 277 282 286 269 270 290 288 286
329 329 330 336 344 351 358 361 355 350 342 335 330 330 328 324 315 302 269 244 229 237 262 273 275 276 277 284 284 282 280 281 283 284 283 282 281 279 278 278 276 273 270 271
334 341 322 322 329 327 326 332 334 343 348 335 335 333 330 328 324 318 314 306 246 233 227 237 259 261 251 248 248 236 237 241 243 242 240 235 230 230 233 238 248 250 248 245
292 298 308 324 344 340 313 314 322 324 324 324 325 328 328 323 319 318 317 316 314 270 241 236 233 230 229 228 228 227 227 228 227 227 226 226 228 231 237 259 253 243 240 239
277 278 280 283 286 297 312 328 350 316 307 311 312 306 305 307 309 310 310 310 313 313 311 312 311 309 306 303 300 298 298 296 291 289 289 289 286 294 300 297 293 292 291 288
277 273 271 272 274 277 280 282 286 295 307 323 336 348 319 326 299 298 298 299 299 297 295 292 290 288 285 284 281 280 291 292 299 296 290 284 285 283 281 279 278 280 280 278
271 268 269 279 280 271 266 268 270 271 273 275 279 282 286 289 293 297 303 308 310 309 306 303 299 295 287 285 284 280 278 277 277 278 280 282 277 274 270 265 260 256 255 263
279 269 267 265 261 260 265 273 271 263 263 261 262 264 267 268 277 280 280 278 275 273 270 268 269 269 269 267 265 263 263 263 262 260 256 254 253 253 255 259 261 259 264 270
294 282 270 266 260 260 259 260 261 263 263 261 265 266 265 263 262 261 258 256 254 254 255 255 258 257 256 256 255 254 254 254 254 255 255 256 256 260 262 263 263 264 266 272
317 299 283 272 265 261 259 258 255 255 252 251 252 253 255 255 255 254 253 253 254 254 252 253 254 254 253 252 251 252 254 255 255 257 257 253 254 268 274 280 283 284 282 280
296 278 309 288 277 267 263 261 257 257 255 251 251 253 252 250 249 246 244 245 242 242 244 248 254 259 260 259 258 260 263 270 280 283 282 278 273 268 274 283 287 289 291 292
305 294 279 305 300 286 276 266 259 259 259 257 255 255 256 254 254 254 257 259 258 257 262 264 270 278 282 284 280 273 263 262 268 283 281 277 275 276 278 280 281 280 281 284
311 303 291 282 272 264 299 294 282 277 272 269 265 265 269 269 271 272 275 280 283 285 275 268 256 259 267 276 279 274 272 271 270 270 272 272 271 273 275 276 280 288 297 302
312 306 306 293 283 274 271 265 274 283 293 292 289 287 263 263 260 258 255 259 266 274 283 275 272 271 273 269 265 264 267 267 265 265 266 266 267 275 279 288 293 295 303 308
320 312 302 305 301 286 277 275 268 265 261 260 260 261 261 261 266 272 273 274 282 269 274 280 270 262 263 263 262 265 262 261 264 266 266 284 296 305 315 315 304 302 308 311
324 317 311 301 306 297 296 287 277 275 270 266 267 270 272 273 269 274 275 271 266 267 273 263 262 264 263 265 264 263 266 271 279 294 304 304 308 311 308 310 312 313 321 325
328 316 315 312 301 301 301 293 292 285 284 280 277 277 277 276 269 276 276 269 266 265 264 263 260 263 263 267 275 280 287 293 299 299 302 307 307 310 309 305 308 318 324 330
323 321 315 311 310 312 306 300 290 293 291 279 278 279 278 275 272 265 264 265 266 266 266 268 276 281 284 286 288 294 296 300 300 304 306 304 312 315 307 318 329 338 339 337

GFSNGP_2pvu_pres_342.txt.gz
Presure
342 329 325 308 315 322 306 294 264 292 299 310 303 302 301 289 283 288 284 289 285 272 260 251 237 228 225 222 217 212 210 207 203 202 202 203 205 206 208 207 209 211 211 209
342 352 333 325 313 307 309 316 302 293 256 293 297 298 292 287 282 281 280 284 284 284 284 284 282 264 256 249 238 228 223 218 216 214 213 209 207 209 212 212 213 216 218 219
338 342 340 322 320 327 324 315 305 297 286 292 250 288 296 290 281 276 271 271 273 281 280 281 278 278 275 275 270 255 249 241 232 224 220 220 221 220 220 223 227 229 231 233
343 341 340 337 317 309 310 312 318 310 300 290 283 261 282 283 280 273 273 267 263 264 268 265 268 275 275 274 275 273 269 262 261 260 259 257 257 261 260 257 254 250 247 243
435 350 337 333 328 330 313 301 301 305 306 301 294 285 257 267 282 279 272 267 268 265 264 262 261 260 261 263 269 271 271 272 273 273 272 270 269 269 270 271 273 274 275 274
411 412 365 337 320 319 323 310 309 300 297 298 296 290 291 253 264 277 276 272 266 263 261 259 258 258 255 255 259 261 261 260 259 258 259 259 259 261 262 264 262 264 264 265
421 433 431 447 334 319 318 325 345 345 324 310 312 314 299 279 253 272 274 273 268 263 263 262 263 264 263 261 261 263 264 264 263 262 261 261 262 264 261 261 260 257 254 255
388 400 410 419 401 366 345 321 323 326 331 330 316 308 311 301 281 248 274 271 269 266 261 259 258 257 255 253 254 256 257 256 259 260 257 260 259 259 257 257 256 256 256 254
359 369 392 408 401 381 351 347 354 336 326 330 338 328 311 318 306 271 249 268 272 272 271 268 266 263 260 257 255 255 256 257 260 259 259 256 255 257 255 254 252 255 254 252
338 347 359 378 398 396 369 353 348 346 353 352 354 353 331 315 306 298 279 250 263 274 274 273 269 266 265 265 264 262 260 257 255 256 259 260 259 257 255 256 255 256 257 254
335 337 334 343 355 388 388 368 358 353 341 341 339 334 348 337 315 302 296 287 261 245 257 269 273 275 271 270 269 269 268 267 265 264 263 263 263 263 260 262 263 266 269 270
283 305 325 345 322 329 343 361 369 361 354 355 342 345 343 336 329 324 315 298 281 268 248 241 253 264 269 273 273 274 274 276 277 281 286 291 293 293 289 289 290 290 290 288
279 284 290 297 315 363 312 322 330 343 353 356 351 344 345 343 341 331 320 309 304 293 280 264 245 235 236 245 251 257 272 274 276 277 278 281 279 277 272 267 264 259 255 249
284 276 282 277 282 289 305 346 315 314 318 324 332 337 338 338 334 334 330 327 319 308 301 295 286 260 245 237 230 228 241 246 257 258 245 228 227 226 225 225 226 227 229 229
294 283 274 272 282 277 276 284 292 320 351 299 305 310 312 317 321 323 327 332 326 323 318 307 302 296 292 284 251 241 237 235 234 233 233 234 236 239 265 277 294 297 297 295
313 299 282 273 269 266 276 288 277 275 281 289 306 319 321 326 294 293 296 301 307 311 311 311 312 311 309 308 305 302 297 294 290 288 287 290 292 292 290 287 283 281 280 283
327 314 301 283 272 266 262 262 264 274 268 276 274 276 277 281 287 291 299 307 316 319 315 308 297 297 296 300 303 302 297 292 289 287 285 282 279 278 277 277 274 272 269 267
327 311 307 304 285 271 266 261 260 262 262 262 265 269 267 266 269 273 275 275 277 278 279 278 278 278 278 277 275 273 272 271 270 269 267 266 264 264 262 260 258 255 256 258
312 318 306 298 309 291 274 267 262 260 257 255 253 253 256 263 264 261 259 258 258 258 257 257 258 259 259 258 256 256 256 256 257 258 257 255 254 254 256 258 259 260 264 271
318 312 315 303 297 300 297 281 266 264 261 259 255 252 252 252 251 250 251 252 253 253 252 253 255 256 255 252 252 252 254 255 257 259 261 263 264 264 282 286 280 274 270 277
325 316 315 314 302 301 283 303 289 275 265 260 260 259 258 257 257 254 252 250 248 246 248 248 252 254 260 262 263 266 269 274 284 288 286 278 267 267 282 282 276 275 276 276
337 326 317 319 313 300 299 285 277 305 290 280 270 263 261 258 259 260 261 263 263 262 265 267 271 279 285 287 280 273 263 262 268 279 287 280 273 271 269 270 270 269 268 272
347 336 328 319 321 315 304 298 288 275 272 278 298 292 286 282 278 277 279 280 284 287 285 273 260 258 267 277 285 283 272 275 278 276 268 265 264 266 267 266 266 268 273 277
356 348 334 327 322 319 316 302 305 293 283 274 272 266 264 267 268 268 260 256 258 261 264 268 273 270 281 278 274 280 282 267 264 266 265 265 266 266 267 272 277 290 306 310
364 348 340 338 330 325 318 310 304 309 298 288 281 275 275 269 268 266 265 265 267 268 271 269 275 275 271 268 268 268 268 267 266 265 264 264 271 279 287 296 302 312 312 311
362 353 347 346 339 331 323 315 306 309 300 306 295 292 286 279 275 275 276 276 274 276 280 270 273 276 271 267 267 267 268 267 267 274 280 287 288 291 301 304 308 313 314 313
377 370 360 347 344 337 324 317 313 305 301 309 304 302 291 291 289 281 280 282 280 278 276 278 277 272 268 270 274 274 276 282 285 288 290 290 298 303 300 306 315 317 323 327

GFSNGP_2pvu_pres_348.txt.gz
Presure
358 370 317 312 312 310 256 273 294 289 295 299 301 289 306 322 286 277 256 245 228 217 210 209 209 199 202 202 193 196 191 181 179 183 177 170 172 177 172 176 172 173 173 174
319 346 349 329 377 296 284 283 261 284 286 280 311 309 306 329 318 320 271 256 244 236 223 213 210 212 209 198 204 204 192 191 189 188 189 181 183 174 170 170 172 172 174 175
349 348 351 349 352 310 292 279 287 254 259 281 277 278 279 291 298 306 310 318 267 246 232 227 214 205 220 217 204 200 204 200 192 193 191 191 195 186 184 184 184 185 183 182
369 344 336 345 344 347 344 314 297 292 277 252 274 279 286 289 290 298 303 306 303 312 279 241 235 233 233 227 215 216 209 198 201 202 206 200 198 200 193 190 189 189 188 194
391 365 340 332 330 331 337 345 321 290 286 278 275 260 283 282 284 287 295 291 295 307 305 291 271 250 243 234 227 219 218 216 213 205 203 207 205 204 197 207 203 203 202 202
469 402 364 341 334 324 321 319 331 331 336 299 298 277 267 283 280 282 285 293 288 291 292 300 281 300 257 249 244 238 227 223 218 217 218 221 216 206 209 212 211 210 209 207
460 474 456 378 341 333 318 314 313 316 315 314 319 309 271 304 255 299 327 328 321 316 297 285 287 287 287 275 250 244 238 231 229 228 227 225 222 218 216 215 215 215 216 216
317 401 476 492 387 342 325 323 311 306 297 298 295 299 304 303 293 259 265 307 302 299 297 298 293 285 303 276 277 284 276 248 241 239 236 231 228 228 228 228 227 228 229 228
322 311 334 467 471 399 362 328 317 323 323 308 301 292 289 290 304 297 317 276 249 283 285 284 288 283 281 282 285 283 267 269 280 282 279 278 276 251 250 247 241 285 281 277
337 321 309 312 444 452 417 363 341 325 310 311 307 301 297 287 281 283 285 284 286 267 250 263 272 276 281 286 278 275 275 275 279 278 279 281 282 282 283 283 281 278 277 278
310 327 319 306 302 337 435 420 388 346 337 324 322 326 308 298 286 288 286 282 285 287 288 262 244 272 283 285 282 276 276 280 275 266 265 267 268 270 269 270 269 267 268 266
321 315 324 317 300 301 315 344 408 403 401 345 325 312 310 308 311 311 308 304 296 289 290 297 293 269 244 255 273 270 272 271 271 273 274 273 270 268 264 264 261 259 256 255
330 324 312 321 310 302 296 296 344 337 381 382 383 384 375 311 310 302 305 302 304 306 303 299 304 301 285 272 243 236 276 273 269 266 264 264 264 262 260 257 258 258 257 257
334 332 323 320 320 305 298 287 294 296 330 327 344 365 369 369 375 373 328 315 315 311 317 320 317 315 313 319 288 276 244 248 267 271 268 266 265 263 260 257 256 254 255 256
333 331 324 325 318 316 304 295 286 289 286 316 324 320 333 347 358 362 360 356 353 331 319 322 327 332 347 339 325 325 280 267 242 253 270 268 266 265 265 264 264 263 264 264
346 334 330 325 322 317 310 307 293 284 283 287 284 324 303 314 329 337 347 350 346 342 340 346 353 345 327 321 318 314 311 293 264 254 244 250 263 265 266 267 269 269 268 267
351 346 336 334 324 322 318 306 309 292 283 279 284 281 287 319 303 300 316 328 334 339 340 337 340 346 340 335 324 321 324 315 302 297 281 263 252 247 241 240 240 241 242 243
376 356 343 340 352 334 322 314 309 311 291 283 275 277 277 277 284 298 311 304 297 303 313 324 329 326 323 324 326 328 328 325 322 320 312 306 301 290 285 266 269 271 259 258
377 367 363 350 339 348 341 346 322 309 312 293 282 273 274 273 276 278 281 286 294 301 306 302 295 291 298 304 307 310 311 312 312 315 311 309 307 304 302 299 296 293 292 293
395 384 364 357 360 350 344 363 344 323 310 312 297 283 274 273 269 267 270 275 275 279 277 281 284 290 295 295 295 295 294 291 289 289 287 286 287 287 286 283 280 278 277 276
398 394 379 372 363 360 361 354 373 345 322 315 305 303 285 278 270 273 266 264 265 266 264 265 266 268 269 270 271 271 271 271 270 270 271 271 270 269 267 265 263 262 261 261
416 405 408 394 387 383 372 367 377 368 342 323 316 307 312 290 280 274 272 270 266 260 263 262 264 265 264 259 257 258 256 255 255 256 257 257 256 255 255 255 256 256 257 263
434 424 435 427 406 385 390 403 388 377 352 333 320 317 313 301 302 282 281 275 271 264 261 260 260 261 262 257 255 254 257 257 256 255 254 254 255 258 264 272 285 285 274 267
418 416 409 411 404 404 399 394 386 375 362 346 334 321 317 316 302 295 300 286 281 276 268 264 264 263 262 261 261 260 260 262 264 265 268 275 287 290 275 265 267 280 280 282
421 429 441 439 429 421 412 402 391 378 369 354 345 336 328 318 317 305 296 290 297 298 290 281 276 274 272 268 268 270 273 277 282 286 293 279 264 264 271 276 276 275 276 284
440 439 432 433 432 427 417 395 390 384 375 362 353 344 340 331 322 316 310 302 294 286 281 282 291 299 297 295 294 294 281 281 280 265 265 267 271 272 273 277 284 283 277 277
435 426 420 423 435 434 424 383 387 374 375 363 366 353 350 340 335 326 319 309 307 298 294 290 286 281 279 276 273 271 270 271 270 270 270 272 276 278 281 283 280 280 285 285

GFSNGP_2pvu_pres_354.txt.gz
Presure
382 366 353 361 334 289 262 265 267 352 355 316 286 277 303 319 335 276 262 242 210 227 211 211 199 192 194 199 201 190 186 184 183 185 179 173 164 164 165 164 163 169 166 162
338 365 352 348 363 325 304 267 248 284 332 363 318 299 294 288 287 298 268 258 243 223 240 228 206 205 206 199 208 204 197 192 189 178 186 179 174 173 171 171 172 171 170 167
382 345 372 345 351 351 320 302 285 248 328 347 308 296 286 299 299 296 306 261 252 236 223 232 232 210 202 203 202 198 189 193 201 198 191 183 181 179 175 173 174 176 174 170
412 392 356 363 346 323 333 338 309 273 262 301 314 306 290 283 283 289 282 291 254 244 238 234 231 225 145 210 207 208 200 198 203 200 190 184 184 187 180 180 178 173 171 169
340 413 390 391 340 335 323 322 305 304 263 308 290 314 311 331 315 299 295 291 272 274 249 237 247 230 229 226 206 209 215 203 198 211 201 200 198 192 189 190 181 180 180 182
363 341 417 396 363 332 328 310 321 297 328 295 236 282 326 319 324 307 283 276 276 266 261 272 253 242 242 220 231 227 229 205 219 217 207 196 189 189 198 200 190 190 194 191
373 357 342 395 397 380 334 320 327 321 296 288 284 265 239 304 295 287 290 280 280 282 282 269 269 268 271 238 232 233 223 215 217 212 210 210 177 206 203 197 194 198 191 186
380 376 356 344 427 400 380 341 328 315 305 299 284 282 284 266 270 268 268 277 297 299 308 319 318 312 270 260 271 249 236 236 235 222 208 211 215 215 204 205 201 201 199 193
401 385 374 364 341 352 408 372 356 317 321 294 290 279 279 274 279 255 281 294 290 289 296 293 294 307 310 310 295 258 265 269 230 235 236 232 219 214 211 209 202 196 195 201
405 388 385 376 359 341 326 435 373 368 316 316 296 295 291 303 280 280 278 248 282 282 264 308 291 304 304 305 312 316 264 255 254 253 260 235 233 230 226 234 220 224 202 207
262 414 398 383 375 359 340 324 513 380 357 352 330 318 305 299 295 282 282 281 274 271 255 267 277 268 279 285 282 291 285 278 286 283 273 275 268 257 254 240 231 220 217 219
246 280 404 391 378 372 360 341 325 369 396 362 341 334 333 334 337 323 290 290 281 278 276 272 273 261 266 275 275 276 278 291 275 297 274 286 281 281 277 271 256 253 251 239
240 256 366 413 385 376 364 360 339 324 314 479 369 350 329 316 320 324 327 295 288 283 283 284 278 266 267 264 270 275 281 275 274 267 286 277 268 285 290 296 300 302 283 255
236 245 260 421 411 387 376 360 355 340 324 313 342 405 356 345 321 312 307 313 318 323 319 319 307 278 277 277 277 255 237 267 278 287 308 311 294 291 286 284 266 265 271 279
235 239 253 369 424 408 380 370 357 350 345 325 314 306 379 400 347 343 321 304 301 300 294 304 311 313 308 307 310 305 304 301 286 245 291 292 284 280 289 296 289 279 279 279
237 243 245 290 428 422 400 376 371 359 350 340 330 313 305 303 357 408 375 346 343 315 302 296 294 296 297 299 292 284 288 287 281 280 293 288 276 283 279 279 281 283 285 286
235 243 243 260 440 435 422 397 378 361 355 358 342 334 320 306 300 297 330 327 394 389 351 341 325 302 297 295 294 296 288 291 278 311 282 289 286 278 279 279 281 280 255 285
235 242 241 254 440 442 435 420 403 384 356 358 349 344 338 324 312 299 292 292 324 316 337 378 394 397 382 361 323 306 301 297 293 289 301 286 277 278 282 281 284 285 280 282
225 244 245 255 449 450 448 440 419 405 382 361 355 351 350 339 330 317 300 291 289 294 335 315 312 332 349 359 369 380 388 389 357 305 302 303 300 299 302 306 312 319 315 317
225 244 246 258 459 472 469 470 450 418 399 384 364 356 351 343 340 333 319 305 298 290 287 291 321 305 305 323 331 338 348 354 358 360 363 368 374 378 371 372 371 356 357 338
232 243 248 263 476 454 444 434 427 419 420 428 388 372 363 355 345 343 336 318 312 299 288 281 282 292 320 316 304 308 316 320 328 332 336 337 336 338 337 338 339 335 332 328
238 246 251 274 464 451 440 439 434 423 418 414 405 402 374 360 364 346 353 341 324 309 296 289 280 279 283 295 305 308 311 310 304 303 306 312 315 318 317 318 319 317 315 312
238 251 258 296 463 453 446 434 426 430 431 417 415 401 431 387 371 360 349 353 345 327 307 296 288 281 277 277 277 281 284 292 296 298 298 296 294 293 293 293 294 294 293 292
241 255 266 470 464 453 442 423 436 439 438 440 441 427 397 413 405 395 378 369 359 348 329 307 299 289 279 277 273 275 272 271 280 279 281 281 283 284 283 281 280 280 279 276
248 261 478 472 465 454 433 424 430 423 426 432 431 427 426 401 395 386 369 406 366 366 348 326 308 303 291 281 277 276 271 269 271 267 264 265 266 267 265 266 265 264 263 263
258 309 469 473 464 464 433 422 423 412 406 411 428 433 426 422 416 398 388 391 392 388 376 346 326 310 305 300 292 283 277 275 272 268 267 266 264 261 260 260 261 261 261 261
268 478 472 475 462 464 441 420 407 409 398 398 401 411 423 422 420 431 416 387 376 381 376 351 340 325 315 310 306 301 294 287 281 278 276 274 272 269 268 267 266 266 266 267

GFSNGP_2pvu_pres_357.txt.gz
Presure
392 377 379 357 367 373 302 267 292 341 408 356 344 345 331 345 324 280 251 219 220 226 215 205 196 192 188 187 186 186 184 183 175 174 173 173 172 168 165 167 167 170 167 170
392 398 363 381 351 357 359 270 269 315 369 320 348 340 316 325 330 333 334 246 221 207 221 217 207 200 196 195 201 201 192 188 185 182 181 176 170 169 171 170 170 167 168 167
413 392 379 366 357 345 335 298 267 270 359 363 316 315 323 323 299 299 313 278 248 232 235 211 225 206 199 197 200 191 191 188 192 197 191 184 179 179 186 172 169 170 166 169
377 401 393 403 352 346 337 328 291 253 285 308 320 318 309 315 308 308 291 300 284 250 231 211 204 204 206 204 196 192 192 193 197 195 188 186 186 183 185 185 181 176 177 173
411 384 449 397 402 370 345 331 329 310 249 261 300 296 299 295 293 306 327 317 310 333 261 244 226 193 187 216 191 201 193 193 193 194 191 187 185 198 177 174 180 180 179 180
253 394 391 370 404 401 367 347 333 325 308 248 280 284 285 288 277 306 283 285 287 285 311 254 246 221 214 231 202 203 203 211 198 197 196 196 196 196 184 180 173 197 173 185
252 249 370 401 371 383 390 349 343 348 345 344 259 276 291 289 285 279 276 277 282 289 276 281 261 253 244 234 216 215 215 228 226 196 204 203 202 191 192 199 195 200 196 192
242 250 250 329 399 377 392 395 354 340 334 342 288 260 298 320 304 284 279 279 293 293 293 289 272 271 246 245 243 229 217 236 214 219 208 205 206 203 192 192 190 193 191 190
245 245 247 254 310 399 379 354 401 365 341 333 325 341 271 282 305 285 277 276 274 271 279 289 298 277 276 279 245 247 241 241 217 231 219 213 207 214 208 204 200 196 193 197
231 244 244 250 259 397 400 378 355 400 381 359 337 327 313 329 305 259 317 292 283 281 275 272 265 261 268 263 264 271 267 243 248 241 237 230 228 217 222 227 220 213 210 201
232 238 245 249 254 273 408 397 377 356 364 370 370 321 319 315 309 292 266 264 285 296 307 284 283 279 279 270 267 267 265 270 267 253 253 239 235 235 233 233 233 233 231 230
228 229 241 246 246 261 282 406 393 377 356 356 367 358 323 327 313 310 296 282 288 270 256 285 297 277 269 270 279 274 270 263 263 263 260 261 261 256 253 240 241 238 236 238
223 233 230 239 246 254 274 430 403 389 381 355 338 389 357 350 323 293 291 297 296 292 275 261 250 266 272 287 288 298 320 308 302 304 331 325 263 257 258 262 258 259 261 262
219 232 237 242 239 250 270 429 431 394 382 372 358 340 326 370 351 328 302 291 284 281 288 289 282 275 258 241 267 284 277 290 283 302 293 299 292 291 293 284 286 285 288 281
230 230 234 235 251 250 263 285 440 425 398 375 367 360 341 326 358 365 347 304 297 292 291 297 293 289 284 279 266 269 247 249 253 280 267 274 279 278 273 288 275 282 279 277
220 223 232 250 248 250 254 287 446 440 426 399 370 360 356 344 330 316 381 360 333 332 326 320 321 322 294 330 293 287 288 283 279 255 240 238 249 282 279 273 264 269 268 281
242 232 227 251 253 249 251 434 444 444 434 426 401 365 364 352 346 332 321 310 333 360 337 320 318 308 309 308 315 316 318 318 316 315 314 288 268 266 267 270 273 277 312 299
239 239 221 249 253 253 266 427 450 457 458 432 424 406 366 359 353 343 335 323 314 308 377 382 359 345 322 310 305 303 300 296 294 299 305 301 302 306 308 311 304 298 288 285
231 232 239 240 253 259 275 452 460 459 475 473 429 411 410 364 351 351 344 337 325 318 312 303 313 365 397 400 377 345 314 307 304 301 297 293 292 295 296 295 289 286 278 280
213 237 242 260 252 264 284 471 475 460 448 436 430 420 411 409 368 348 348 345 330 331 320 309 300 294 292 326 323 348 373 389 390 379 361 313 309 305 302 297 293 291 289 289
224 239 251 261 250 266 406 486 476 459 446 435 428 418 416 424 401 380 351 342 347 338 328 321 309 301 296 291 285 324 308 315 336 348 358 364 371 377 379 383 342 317 307 309
233 227 253 272 250 272 482 487 471 455 461 446 428 421 411 405 404 408 388 355 346 345 339 330 325 309 302 295 290 284 285 315 309 307 323 330 335 341 347 353 359 359 360 361
242 237 258 262 266 357 489 484 466 464 461 441 423 434 431 412 405 395 428 382 375 356 347 339 338 334 316 302 292 289 281 281 284 322 316 306 306 308 312 316 322 324 326 327
241 245 263 257 276 405 436 475 466 481 453 435 431 428 431 433 436 422 400 436 401 376 360 348 351 338 344 320 302 292 288 281 279 278 281 297 308 307 307 308 300 296 297 299
239 272 268 264 360 407 442 475 469 470 451 440 424 416 417 422 427 426 424 409 384 420 379 371 355 355 345 348 324 307 293 288 281 279 276 273 270 277 282 284 288 290 290 289
241 259 264 314 359 375 298 467 449 462 443 429 419 407 402 405 412 435 429 430 421 395 401 404 371 369 363 348 353 332 307 295 289 283 279 277 272 269 270 269 268 267 267 269
268 268 276 363 358 474 405 455 447 434 442 416 413 401 392 392 393 398 412 417 413 430 411 392 379 363 393 394 350 355 333 309 301 291 286 285 280 278 276 270 267 265 265 265

GFSNGP_2pvu_pres_360.txt.gz
Presure
407 400 391 402 394 377 281 270 319 335 346 334 330 329 326 325 350 280 244 224 218 213 208 199 191 174 182 178 178 178 179 180 180 181 176 168 168 170 168 174 163 162 158 158
284 403 380 384 399 389 378 300 271 318 401 420 349 336 333 345 357 327 277 257 221 217 215 208 199 192 188 184 180 180 179 178 180 181 179 177 174 172 166 165 164 167 162 168
268 278 393 397 383 389 382 373 324 275 315 380 397 375 329 324 331 355 333 276 247 215 222 219 211 205 197 191 188 187 167 177 178 180 180 177 176 168 170 176 171 172 170 163
255 266 273 415 398 380 372 367 361 282 272 302 345 363 392 344 341 341 321 328 269 254 226 221 223 213 207 201 197 191 189 189 188 186 185 185 189 185 182 184 187 181 175 175
241 257 261 269 317 401 372 362 353 342 277 272 339 386 357 343 313 308 307 326 333 265 256 235 223 214 213 213 203 196 197 194 199 192 185 179 196 197 185 183 183 184 181 176
243 243 261 255 265 291 418 378 361 355 347 290 267 325 329 351 353 315 303 309 325 345 278 253 237 221 215 213 211 211 211 199 193 191 193 193 196 197 195 194 190 181 178 181
223 239 255 258 256 269 322 382 397 356 346 332 329 274 257 325 321 319 295 293 299 307 316 345 264 241 234 221 221 216 208 217 205 204 204 198 171 195 184 184 185 184 192 179
234 231 229 257 253 250 272 371 392 398 356 348 341 302 282 261 298 298 286 290 292 304 292 302 328 273 248 239 239 221 204 200 206 203 203 199 195 168 170 184 184 181 188 189
226 229 218 237 254 254 264 269 418 386 393 364 349 345 302 286 277 264 316 302 289 292 283 289 299 295 263 255 243 229 217 226 219 228 194 180 183 185 197 199 194 198 200 191
224 217 232 218 254 261 259 268 281 422 385 408 374 350 340 298 290 282 271 296 302 306 299 290 292 290 299 292 259 250 248 247 245 222 208 178 230 212 206 200 197 198 200 193
220 219 233 220 237 266 249 265 275 427 407 387 395 384 355 339 297 285 279 288 267 284 279 296 286 290 289 284 288 284 263 247 247 249 241 233 230 233 221 207 212 208 201 202
216 222 232 221 240 255 258 261 274 370 431 396 391 373 390 370 341 311 281 273 272 266 285 287 264 262 265 272 284 274 272 269 271 264 240 239 241 244 246 243 234 226 218 229
211 221 225 231 235 245 259 256 273 361 460 440 395 387 365 385 376 334 337 298 280 281 262 252 261 273 275 270 269 276 262 264 261 261 261 254 260 257 247 251 249 253 252 257
212 219 226 233 233 241 258 255 271 345 453 453 445 402 378 362 378 370 361 339 325 321 300 284 286 262 275 273 282 279 249 257 266 267 257 259 261 259 256 251 250 254 262 264
224 221 229 232 238 240 263 256 271 346 424 452 449 445 406 374 362 356 357 363 334 329 292 286 300 288 286 284 271 269 270 275 278 266 275 275 267 269 266 264 258 259 255 254
220 219 228 233 236 242 260 256 268 341 425 440 451 446 445 415 376 359 346 335 361 349 321 317 296 280 274 282 302 275 272 265 269 267 265 267 269 263 259 258 263 263 259 260
217 214 228 235 235 241 260 258 270 387 429 442 461 453 451 443 423 377 357 354 337 370 363 344 334 303 301 294 289 308 304 303 304 295 278 276 282 278 276 269 269 271 276 302
211 216 229 243 238 244 267 262 274 395 341 331 474 469 459 461 450 422 380 357 351 347 326 408 368 346 307 298 295 282 285 277 276 273 269 263 260 255 253 251 257 264 271 275
205 216 242 246 244 248 260 264 277 362 343 291 483 477 471 470 467 455 419 385 360 351 352 335 319 371 381 342 306 297 298 300 292 282 285 289 286 297 320 305 287 271 280 259
204 214 247 252 254 260 256 270 283 367 376 290 491 480 468 452 440 472 452 412 390 359 350 338 337 327 315 326 417 365 340 301 291 292 291 301 319 311 313 307 305 305 308 313
214 270 245 255 262 273 261 275 306 371 381 291 484 477 474 456 441 427 420 442 402 393 352 344 341 333 333 320 309 301 301 403 377 360 348 336 329 320 316 314 308 307 308 307
230 252 221 254 262 279 266 282 371 405 381 291 483 491 470 454 439 430 426 405 431 404 386 350 337 336 338 329 327 312 303 296 293 293 341 365 376 388 397 398 379 355 349 318
213 241 260 282 276 272 269 290 348 326 493 292 475 485 461 441 427 420 414 411 424 397 407 390 355 337 335 337 326 323 321 309 302 293 291 289 289 302 313 309 317 342 353 360
255 264 248 287 283 265 271 355 344 387 485 477 471 478 461 442 427 423 427 435 431 400 398 421 395 376 344 333 337 336 323 326 317 307 302 294 290 287 284 293 314 305 303 306
271 278 289 279 273 268 284 349 334 391 475 463 455 461 452 441 425 415 409 421 426 428 423 397 385 425 391 355 339 335 336 331 326 320 310 304 297 290 284 280 280 310 318 314
284 280 283 282 264 274 349 329 303 473 464 451 443 452 440 435 422 410 404 396 407 429 425 429 416 393 429 402 379 355 344 341 337 330 327 313 303 296 292 284 279 278 280 281
278 285 278 275 270 290 334 320 326 460 455 447 442 452 433 422 415 406 395 388 390 396 408 414 416 423 405 375 417 388 365 352 343 345 335 335 318 305 296 293 284 280 276 274

GFSNGP_2pvu_pres_363.txt.gz
Presure
260 270 309 434 410 404 409 407 386 370 296 264 271 286 303 328 384 408 267 225 214 213 206 199 193 190 188 186 180 182 181 179 173 171 173 171 176 173 171 173 171 169 168 170
237 266 264 282 428 416 407 404 280 281 269 266 267 267 269 284 358 363 373 267 227 218 213 209 201 194 191 189 186 184 181 178 177 177 176 172 158 167 173 171 170 169 175 163
238 238 266 257 281 392 409 404 396 322 275 363 380 351 353 354 305 347 360 363 269 227 220 217 206 201 194 190 189 187 185 186 184 163 166 171 162 167 169 168 171 169 163 161
244 238 238 268 256 286 329 421 416 394 379 283 275 410 355 345 346 341 345 351 351 262 244 224 221 211 203 196 191 190 188 186 187 178 163 171 178 178 174 171 169 165 162 161
225 240 242 240 263 262 284 315 404 406 385 334 294 279 394 398 346 334 329 334 340 314 259 250 235 224 218 211 202 199 193 190 186 185 182 179 180 178 164 164 171 178 162 175
216 230 238 237 245 266 257 277 305 402 392 372 340 296 279 366 399 343 329 335 318 334 292 256 251 240 233 221 213 206 202 200 190 191 190 187 182 181 181 180 176 179 179 165
214 214 237 244 244 244 262 261 286 430 404 369 358 338 305 282 361 381 356 334 336 327 320 316 254 249 246 238 226 215 211 206 207 201 197 187 179 175 185 186 186 183 181 176
208 221 215 240 244 250 248 255 269 289 460 384 380 356 333 337 284 298 366 341 343 330 322 309 308 260 251 245 239 233 217 212 206 214 203 182 190 197 194 191 189 179 184 187
207 211 209 220 249 245 249 267 265 282 414 430 495 387 345 349 322 291 263 339 333 315 314 325 297 307 278 249 246 240 231 226 221 210 207 207 215 198 196 195 198 200 199 202
211 212 211 211 220 247 252 265 259 272 285 481 440 473 363 350 316 323 294 270 313 316 305 307 314 309 288 284 258 249 245 235 223 216 219 214 208 199 177 203 203 201 200 198
243 220 201 208 209 223 254 259 261 261 286 458 496 445 424 367 345 312 312 295 320 308 302 307 306 315 333 307 304 285 256 244 238 236 231 221 216 215 209 204 205 202 192 199
225 213 210 218 209 212 240 262 278 263 279 297 438 474 451 410 437 369 317 311 302 332 305 286 297 294 305 303 288 293 291 273 250 241 238 234 230 227 218 218 218 216 209 179
241 214 238 201 212 229 233 277 279 263 275 289 447 445 457 463 416 431 393 350 314 314 301 297 296 290 291 300 303 277 277 275 274 268 244 242 239 238 238 239 239 230 227 219
206 200 204 212 214 245 273 290 286 279 270 283 375 361 451 461 464 422 388 396 350 311 312 295 276 304 289 285 290 295 291 274 270 272 267 262 261 252 248 247 244 246 249 250
199 201 200 228 227 220 250 215 290 286 266 286 385 373 452 294 466 461 430 387 406 370 315 304 300 279 268 269 284 291 288 302 291 277 273 264 262 270 256 252 252 255 254 251
202 191 218 241 216 224 243 265 276 284 259 285 406 356 405 456 471 477 463 441 387 375 388 332 299 292 283 273 299 254 288 285 283 280 275 268 264 267 265 264 263 265 266 266
200 215 224 210 215 240 259 283 281 274 260 284 367 346 324 453 478 486 478 461 446 395 365 386 357 314 286 295 278 273 265 260 251 285 281 284 277 267 266 264 261 262 259 259
200 227 217 239 209 223 269 273 282 280 261 278 360 342 391 459 483 487 485 478 458 441 399 369 375 374 345 297 283 280 274 269 259 282 268 252 243 252 264 261 258 253 253 253
202 228 212 227 215 246 249 248 285 282 256 277 360 336 319 477 493 496 491 482 484 461 437 403 366 372 358 360 338 286 282 269 271 267 281 263 262 252 246 259 268 273 260 259
224 233 230 229 244 295 299 293 287 285 258 278 356 331 304 495 498 492 484 476 468 478 476 435 409 362 353 338 348 351 316 323 288 283 277 277 266 265 261 268 262 258 257 282
228 250 230 250 233 237 293 295 287 286 259 284 353 328 306 495 491 490 488 468 457 446 446 485 431 411 368 349 346 326 339 380 353 311 309 310 288 281 281 309 268 265 268 285
256 241 234 280 278 300 252 295 287 274 270 293 346 314 304 487 481 487 476 457 452 475 430 428 460 426 402 373 354 344 342 326 322 427 398 362 337 299 293 312 295 287 288 289
233 246 241 309 297 280 299 290 288 268 278 354 336 306 308 476 467 482 464 445 435 432 427 442 415 452 419 397 374 356 345 339 340 326 313 316 403 411 384 365 337 301 296 296
235 250 256 240 291 298 294 290 278 269 286 347 320 300 442 466 457 466 457 438 427 420 421 416 411 409 438 411 392 375 355 345 338 333 334 329 314 306 303 321 364 381 388 391
249 286 288 266 299 294 293 283 270 277 357 337 309 300 460 456 453 449 451 437 423 412 410 415 425 414 400 400 413 394 382 354 344 336 337 339 335 331 318 310 303 300 296 295
298 297 289 297 292 291 276 276 275 310 348 317 303 338 455 450 443 449 439 430 421 409 402 405 413 419 424 403 398 386 407 390 364 346 334 332 337 335 328 331 325 315 306 301
290 300 296 291 289 274 279 274 298 351 329 302 300 457 449 450 444 450 434 423 414 405 397 389 390 401 414 416 417 409 384 412 418 388 356 339 334 332 336 334 328 325 325 316

GFSNGP_2pvu_pres_366.txt.gz
Presure
221 236 265 274 271 302 388 414 420 397 390 399 395 295 296 311 331 348 359 255 216 213 210 208 205 203 200 192 184 182 180 181 184 183 171 163 176 171 171 172 175 177 173 174
215 215 226 249 268 271 296 314 415 410 310 411 392 281 289 301 316 330 337 352 349 223 220 212 209 204 204 201 197 188 182 179 180 181 179 179 175 173 166 170 169 171 172 177
225 214 215 222 260 271 272 285 329 407 402 291 325 367 273 276 293 306 319 330 373 292 229 224 215 205 206 204 201 195 191 190 187 180 178 175 172 175 175 174 174 172 172 170
213 221 212 216 233 267 274 274 285 330 411 401 382 290 306 300 271 281 296 309 318 411 407 231 225 215 211 204 201 199 196 196 193 190 185 180 180 180 178 178 172 171 171 170
215 213 214 223 216 233 262 273 278 287 321 420 410 400 318 284 314 315 269 283 302 359 385 360 234 226 218 210 204 200 198 198 195 192 188 181 180 176 177 178 179 178 169 166
225 211 222 242 235 220 224 298 287 275 298 438 417 393 386 387 292 285 351 352 278 287 367 375 357 271 231 224 214 206 198 197 193 190 190 190 186 186 170 181 177 178 178 178
209 212 211 210 210 231 227 250 302 289 273 306 458 419 385 375 371 294 284 351 346 346 282 339 364 306 277 248 227 216 210 206 202 190 190 194 192 188 180 174 180 178 177 178
201 203 211 212 220 210 242 242 271 299 294 268 327 463 420 382 370 361 301 281 389 350 343 286 328 344 294 282 262 237 224 215 212 207 202 201 192 183 178 176 178 186 180 178
200 201 199 197 206 231 238 227 241 259 285 292 279 443 500 445 373 368 355 311 281 399 353 333 321 315 341 287 277 272 256 231 219 214 210 207 189 181 195 193 190 187 179 168
201 192 214 206 215 212 215 258 227 260 254 291 272 296 399 500 438 383 363 352 331 277 385 347 338 317 316 321 285 275 274 267 246 232 222 216 211 201 198 201 197 183 192 190
240 214 206 197 198 221 237 249 245 243 284 292 295 271 305 376 438 462 414 357 352 335 283 337 360 326 306 308 306 302 267 271 266 255 250 233 222 212 209 204 197 197 199 201
222 243 219 197 192 199 244 210 243 264 246 298 289 284 286 396 376 431 484 397 365 346 333 322 291 347 343 318 300 293 293 285 265 260 261 253 250 236 226 210 211 214 213 210
209 231 209 242 238 245 234 248 257 240 282 239 296 294 269 300 355 358 462 479 418 358 342 334 346 268 331 307 318 300 299 291 286 286 262 256 252 254 243 236 223 218 214 211
235 224 243 201 193 256 219 264 258 232 297 301 284 287 275 286 363 344 373 478 453 478 361 339 329 310 342 318 325 306 302 296 290 282 285 284 255 253 249 241 243 237 228 219
237 220 219 245 222 232 256 254 256 268 306 301 300 286 285 267 318 341 332 469 479 487 469 405 341 322 317 340 316 315 308 291 285 286 277 267 269 269 262 245 244 246 243 240
232 226 238 251 202 258 262 238 255 274 306 300 298 286 290 256 290 345 316 367 474 491 495 464 403 358 318 317 341 311 310 306 292 279 267 270 268 268 263 274 272 261 250 241
231 210 241 248 242 257 270 257 281 311 298 301 293 289 284 266 290 349 326 310 469 495 497 490 462 407 410 335 318 332 295 299 308 311 279 273 264 264 265 259 257 255 254 253
187 230 238 238 250 237 241 261 291 303 297 290 290 289 279 263 296 352 324 303 364 497 491 491 491 460 411 400 353 328 316 297 302 283 297 297 300 277 266 267 265 261 255 256
226 238 241 239 254 261 251 302 301 298 296 287 287 278 273 271 321 344 321 302 498 502 498 499 500 492 453 431 389 364 335 312 311 296 275 288 282 294 285 280 276 264 273 264
243 240 239 248 248 244 301 305 301 299 292 287 278 272 267 280 359 337 317 301 498 499 498 493 490 492 499 454 432 375 383 331 310 306 294 281 290 284 263 288 282 277 268 264
236 245 239 254 245 248 312 304 301 290 287 283 273 272 272 294 350 327 308 305 489 489 494 493 486 479 480 512 457 430 362 393 336 313 298 289 288 278 272 267 276 270 290 286
242 246 255 269 250 315 309 297 291 289 288 274 262 277 278 358 341 315 303 487 477 473 485 473 465 470 464 458 489 452 424 368 370 370 328 311 292 293 287 286 277 275 275 274
245 255 257 289 321 315 306 292 290 288 281 263 279 285 329 347 329 299 299 471 466 466 466 454 446 441 461 445 441 468 444 416 381 348 378 352 329 318 311 299 287 284 286 276
252 258 308 335 317 304 294 291 290 286 270 259 284 291 351 334 306 296 317 464 459 455 456 443 434 429 427 426 431 426 455 433 410 399 356 346 373 350 338 336 325 309 298 289
277 349 343 310 298 293 292 287 276 266 281 283 318 356 337 312 285 321 462 457 449 446 445 436 426 420 418 420 411 433 411 420 424 401 398 374 350 344 346 349 343 337 357 396
353 322 307 297 290 289 285 270 264 283 286 366 353 341 315 282 315 461 460 451 445 445 439 427 424 411 406 408 413 421 407 405 408 419 396 391 388 367 353 344 339 339 335 325
312 300 293 292 290 282 266 272 282 277 363 350 335 316 293 279 457 454 449 443 446 445 434 420 417 410 401 396 400 415 416 417 398 404 417 397 385 384 378 363 351 344 339 335

GFSNGP_2pvu_pres_369.txt.gz
Presure
215 219 216 216 236 260 273 310 292 381 420 424 393 394 404 359 303 334 353 358 388 232 213 212 213 212 212 202 200 136 204 196 187 182 175 172 169 168 160 161 160 159 159 158
207 216 213 214 218 237 255 272 268 304 398 435 434 386 383 373 325 320 329 341 346 193 229 213 212 213 212 212 207 195 194 192 198 196 187 183 181 177 173 171 169 163 161 161
203 207 204 215 213 218 243 236 245 317 309 313 419 427 402 402 378 357 311 317 333 346 367 235 217 213 213 212 211 204 200 197 191 192 192 188 186 188 188 182 179 176 173 172
193 210 206 239 211 219 238 240 245 269 311 309 306 411 406 410 362 395 295 304 308 325 338 386 293 217 216 213 212 211 206 202 202 200 194 190 190 189 188 189 188 183 179 175
247 218 252 219 204 205 219 246 272 237 277 295 312 292 421 409 403 312 391 279 299 305 324 332 402 402 217 223 217 187 210 208 202 200 195 187 182 181 181 184 186 188 180 178
218 221 246 240 240 209 209 207 268 238 247 271 307 313 290 427 418 412 379 312 279 274 302 314 324 406 392 369 221 222 214 210 206 203 196 196 190 186 184 182 181 179 178 166
230 229 218 212 209 249 216 253 226 247 248 254 321 264 310 288 464 412 404 375 302 299 272 280 306 321 385 407 348 239 219 216 213 197 201 196 193 193 191 186 186 164 169 172
213 229 232 221 225 167 239 227 211 254 256 252 292 318 297 306 289 451 407 399 387 343 282 325 269 291 312 367 388 343 277 211 209 201 204 201 200 161 194 190 191 186 187 182
218 221 225 245 225 244 242 244 254 271 237 290 294 311 311 296 298 301 516 429 392 382 357 283 361 301 275 311 362 352 317 297 241 221 213 210 205 196 199 183 188 189 177 183
199 239 225 203 200 244 233 208 253 229 268 326 316 280 307 300 299 284 429 484 442 391 385 375 316 282 347 275 282 352 367 308 292 279 230 219 213 207 208 182 193 197 195 175
226 221 226 211 234 209 244 220 256 249 253 257 306 315 304 300 287 292 271 371 412 448 405 377 377 332 276 357 339 272 345 346 317 291 281 260 231 223 216 210 208 193 183 191
224 231 204 226 229 242 235 245 250 256 243 273 308 317 303 298 288 289 279 269 363 350 486 444 374 375 374 288 329 349 278 308 343 328 292 283 271 259 235 221 206 206 198 193
222 230 215 235 215 235 230 252 247 236 325 313 311 304 302 296 288 283 281 268 279 354 337 482 437 384 356 362 294 279 346 334 273 319 315 317 283 276 263 249 236 227 215 206
222 240 210 233 223 237 235 253 241 264 317 313 307 300 301 293 290 287 279 272 264 338 343 329 464 434 370 358 363 324 274 317 332 325 319 313 307 297 274 267 259 248 238 231
231 220 237 242 233 244 234 248 260 286 301 313 308 300 300 290 292 282 276 271 267 286 347 331 314 486 498 419 361 360 358 296 318 327 305 309 310 301 303 291 274 262 257 249
233 243 237 222 238 246 256 248 274 321 300 317 309 303 296 288 288 282 274 265 272 288 360 336 319 305 486 513 459 362 347 345 302 277 305 317 304 304 291 295 301 274 273 265
238 191 234 236 243 243 252 253 284 314 320 324 307 294 296 287 284 277 272 266 279 301 362 344 319 302 296 509 510 472 364 342 329 343 350 306 300 299 292 290 289 291 289 288
244 239 239 238 243 239 249 264 335 337 333 315 302 291 291 289 277 270 253 283 288 372 358 340 321 305 297 508 511 504 480 391 339 332 314 343 325 301 289 287 286 278 280 279
233 236 236 245 239 248 264 355 348 335 310 300 294 292 286 289 270 265 252 291 331 362 347 331 312 298 300 512 513 512 497 461 404 339 323 315 333 303 315 293 278 271 270 269
229 236 237 236 250 257 363 346 325 307 297 296 290 287 281 273 270 275 279 318 371 350 335 314 304 300 504 504 507 509 509 484 451 391 376 320 302 316 327 315 299 294 287 273
240 237 240 247 250 358 335 317 303 299 296 290 286 277 268 265 286 286 309 363 356 340 319 293 293 443 482 492 500 503 500 504 470 437 386 380 310 300 312 303 308 278 287 283
243 239 247 250 264 334 319 309 301 294 288 283 272 266 280 286 287 324 372 353 340 323 294 285 417 475 476 484 479 475 481 474 496 460 430 376 371 327 314 292 314 297 278 289
243 247 252 261 337 319 313 303 292 285 275 269 266 282 292 294 324 368 348 337 326 302 282 283 469 464 471 463 457 451 455 468 459 480 448 419 368 362 342 325 301 293 306 281
250 250 261 339 319 314 305 290 285 273 268 277 285 288 303 367 361 344 330 317 300 293 292 459 462 457 453 454 441 435 434 456 439 445 463 440 422 355 355 343 330 318 299 292
247 260 338 320 312 301 292 284 270 269 282 281 286 331 366 356 341 320 315 293 289 460 461 461 455 450 448 442 434 426 423 423 431 428 434 448 434 424 356 363 347 332 311 320
263 323 320 311 301 287 280 272 267 285 286 294 371 363 348 333 318 295 295 354 458 453 453 449 449 449 443 435 425 419 412 411 412 413 435 420 435 423 419 394 342 358 343 328
323 319 310 292 281 277 276 285 294 307 324 358 351 343 334 313 291 358 426 435 453 442 439 442 445 437 442 428 422 416 407 402 404 414 403 429 397 424 412 402 404 378 347 345